FW0226 Weather Reports


time (UTC)temp
C
wind
direction
speed
KPH
gust
KPH
rain 1hr
cm
rain 24hr
cm
rain mn
cm
humidity
%
barometer
mb
20260503174553 15 267 4.8 20.9 0.00 0.08 0.03 53 1018.1
20260503173049 15 359 0.0 22.5 0.00 0.08 0.03 55 1018.0
20260503171550 15 318 4.8 22.5 0.00 0.08 0.03 54 1018.1
20260503081557 11 359 0.0 0.0 0.00 0.23 0.03 82 1014.0
20260503071601 12 318 0.0 1.6 0.00 0.56 0.03 76 1013.2
20260503054558 12 316 0.0 3.2 0.00 0.56 0.03 79 1012.8
20260503053039 12 312 0.0 4.8 0.00 0.56 0.03 78 1012.7
20260503051538 12 312 0.0 3.2 0.03 0.56 0.03 77 1012.8
20260503050037 12 320 0.0 0.0 0.03 0.56 0.03 75 1012.9
20260503044541 12 359 0.0 1.6 0.03 0.56 0.03 73 1013.0
20260503043042 12 332 0.0 1.6 0.03 0.56 0.03 71 1013.0
20260503041533 12 328 0.0 1.6 0.00 0.53 0.00 72 1012.8
20260503040035 12 336 0.0 0.0 0.00 0.53 0.00 74 1012.8
20260503034530 12 28 0.0 3.2 0.00 0.53 0.53 74 1012.8
20260503033029 12 359 0.0 0.0 0.00 0.53 0.53 75 1012.8
20260503031529 12 345 0.0 0.0 0.00 0.53 0.53 76 1012.7
20260503030034 12 354 0.0 0.0 0.00 0.53 0.53 75 1012.7
20260503024528 12 347 0.0 0.0 0.00 0.56 0.53 77 1012.9
20260503023027 12 10 0.0 0.0 0.00 0.56 0.53 78 1012.9
20260503021525 12 359 0.0 4.8 0.00 0.56 0.53 82 1012.6
20260503020025 12 359 0.0 0.0 0.00 0.56 0.53 84 1012.8
20260503014524 12 354 0.0 0.0 0.00 0.58 0.53 87 1012.7
20260503013035 12 11 0.0 1.6 0.00 0.58 0.53 89 1012.6
20260503011524 12 359 0.0 0.0 0.00 0.58 0.53 89 1012.4
20260503010024 12 359 0.0 0.0 0.00 0.58 0.53 89 1012.4
20260503004533 12 331 0.0 0.0 0.00 0.69 0.53 89 1012.1
20260503003031 12 347 0.0 0.0 0.00 0.69 0.53 88 1011.8
20260503001522 12 349 0.0 0.0 0.00 0.69 0.53 87 1011.9
20260503000025 12 359 0.0 1.6 0.00 0.69 0.53 87 1011.9
20260502234532 12 359 0.0 0.0 0.00 0.69 0.53 85 1011.7
20260502233030 12 359 0.0 0.0 0.00 0.69 0.53 84 1011.5
20260502231520 12 354 0.0 0.0 0.00 0.69 0.53 84 1011.4
20260502230025 12 345 0.0 0.0 0.00 0.69 0.53 85 1011.1
20260502224519 12 21 0.0 1.6 0.00 0.69 0.53 82 1011.2
20260502223027 12 354 0.0 0.0 0.00 0.69 0.53 83 1011.1
20260502221516 12 93 0.0 4.8 0.00 0.69 0.53 86 1011.2
20260502220022 12 54 0.0 16.1 0.00 0.69 0.53 87 1011.1
20260502214515 12 4 0.0 0.0 0.00 0.69 0.53 91 1011.1
20260502213014 12 349 0.0 0.0 0.00 0.69 0.53 91 1011.3
20260502211514 11 359 0.0 0.0 0.00 0.69 0.53 90 1011.3
20260502210014 11 4 0.0 4.8 0.03 0.69 0.53 89 1011.2
20260502204514 11 39 0.0 19.3 0.03 0.69 0.53 90 1011.1
20260502203011 11 13 0.0 11.3 0.03 0.69 0.53 92 1010.9
20260502201515 11 359 0.0 6.4 0.03 0.69 0.53 92 1011.0
20260502200013 12 39 0.0 1.6 0.00 0.66 0.51 92 1011.0
20260502194526 12 25 0.0 6.4 0.00 0.66 0.51 92 1010.8
20260502193009 12 359 0.0 19.3 0.00 0.66 0.51 91 1011.4
20260502191508 12 46 0.0 19.3 0.00 0.66 0.51 90 1011.7
20260502190011 12 74 0.0 6.4 0.00 0.66 0.51 91 1011.4
20260502184507 12 10 1.6 17.7 0.00 0.66 0.51 90 1011.8
20260502183006 12 10 4.8 25.7 0.00 0.66 0.51 90 1011.9
20260502181513 12 17 1.6 20.9 0.03 0.66 0.51 92 1011.8